Year,Month,Day,Hour,Minute,Value (Times are PST for temperature in C)
2011,11,15,12,57,6.10
2011,11,15,12,58,6.10
2011,11,15,12,59,6.10
2011,11,15,13,00,6.10
2011,11,15,13,01,6.00
2011,11,15,13,02,6.00
2011,11,15,13,03,5.90
2011,11,15,13,04,5.90
2011,11,15,13,05,5.90
2011,11,15,13,06,5.80
2011,11,15,13,07,5.80
2011,11,15,13,08,5.70
2011,11,15,13,09,5.70
2011,11,15,13,10,5.70
2011,11,15,13,11,5.70
2011,11,15,13,12,5.70
2011,11,15,13,13,5.70
2011,11,15,13,14,5.70
2011,11,15,13,15,5.70
2011,11,15,13,16,5.70
2011,11,15,13,17,5.70
2011,11,15,13,18,5.70
2011,11,15,13,19,5.80
2011,11,15,13,20,5.80
2011,11,15,13,21,5.80
2011,11,15,13,22,5.80
2011,11,15,13,23,5.80
2011,11,15,13,24,5.70
2011,11,15,13,25,5.70
2011,11,15,13,26,5.70
2011,11,15,13,27,5.70
2011,11,15,13,28,5.70
2011,11,15,13,29,5.80
2011,11,15,13,30,5.80
2011,11,15,13,31,5.90
2011,11,15,13,32,5.90
2011,11,15,13,33,5.90
2011,11,15,13,34,5.90
2011,11,15,13,35,6.00
2011,11,15,13,36,6.00
2011,11,15,13,37,6.00
2011,11,15,13,38,6.00
2011,11,15,13,39,6.00
2011,11,15,13,40,6.00
2011,11,15,13,41,6.00
2011,11,15,13,42,5.90
2011,11,15,13,43,5.90
2011,11,15,13,44,5.90
2011,11,15,13,45,5.80
2011,11,15,13,46,5.70
2011,11,15,13,47,5.70
2011,11,15,13,48,5.70
2011,11,15,13,49,5.60
2011,11,15,13,50,5.60
2011,11,15,13,51,5.60
2011,11,15,13,52,5.60
2011,11,15,13,53,5.50
2011,11,15,13,54,5.50
2011,11,15,13,55,5.40
2011,11,15,13,56,5.40
2011,11,15,13,57,5.40
2011,11,15,13,58,5.40
2011,11,15,13,59,5.40
2011,11,15,14,00,5.40
2011,11,15,14,01,5.40
2011,11,15,14,02,5.40
2011,11,15,14,03,5.40
2011,11,15,14,04,5.30
2011,11,15,14,05,5.30
2011,11,15,14,06,5.30
2011,11,15,14,07,5.30
2011,11,15,14,08,5.30
2011,11,15,14,09,5.30
2011,11,15,14,10,5.20
2011,11,15,14,11,5.20
2011,11,15,14,12,5.20
2011,11,15,14,13,5.20
2011,11,15,14,14,5.20
2011,11,15,14,15,5.20
2011,11,15,14,16,5.20
2011,11,15,14,17,5.20
2011,11,15,14,18,5.20
2011,11,15,14,19,5.20
2011,11,15,14,20,5.20
2011,11,15,14,21,5.10
2011,11,15,14,22,5.10
2011,11,15,14,23,5.10
2011,11,15,14,24,5.10
2011,11,15,14,25,5.10
2011,11,15,14,26,5.10
2011,11,15,14,27,5.10
2011,11,15,14,28,5.10
2011,11,15,14,29,5.10
2011,11,15,14,30,5.00
2011,11,15,14,31,5.00
2011,11,15,14,32,5.00
2011,11,15,14,33,4.90
2011,11,15,14,34,4.90
2011,11,15,14,35,4.90
2011,11,15,14,36,4.90
2011,11,15,14,37,4.80
2011,11,15,14,38,4.80
2011,11,15,14,39,4.80
2011,11,15,14,40,4.80
2011,11,15,14,41,4.80
2011,11,15,14,42,4.70
2011,11,15,14,43,4.70
2011,11,15,14,44,4.70
2011,11,15,14,45,4.70
2011,11,15,14,46,4.70
2011,11,15,14,47,4.70
2011,11,15,14,48,4.70
2011,11,15,14,49,4.70
2011,11,15,14,50,4.70
2011,11,15,14,51,4.70
2011,11,15,14,52,4.70
2011,11,15,14,53,4.70
2011,11,15,14,54,4.70
2011,11,15,14,55,4.70
2011,11,15,14,56,4.70
2011,11,15,14,57,4.70
2011,11,15,14,58,4.70
2011,11,15,14,59,4.80
2011,11,15,15,00,4.80
2011,11,15,15,01,4.80
2011,11,15,15,02,4.80
2011,11,15,15,03,4.70
2011,11,15,15,04,4.70
2011,11,15,15,05,4.70
2011,11,15,15,06,4.70
2011,11,15,15,07,4.70
2011,11,15,15,08,4.70
2011,11,15,15,09,4.70
2011,11,15,15,10,4.70
2011,11,15,15,11,4.70
2011,11,15,15,12,4.60
2011,11,15,15,13,4.60
2011,11,15,15,14,4.60
2011,11,15,15,15,4.60
2011,11,15,15,16,4.60
2011,11,15,15,17,4.60
2011,11,15,15,18,4.60
2011,11,15,15,19,4.60
2011,11,15,15,20,4.50
2011,11,15,15,21,4.50
2011,11,15,15,22,4.50
2011,11,15,15,23,4.50
2011,11,15,15,24,4.50
2011,11,15,15,25,4.40
2011,11,15,15,26,4.40
2011,11,15,15,27,4.40
2011,11,15,15,28,4.40
2011,11,15,15,29,4.30
2011,11,15,15,30,4.30
2011,11,15,15,31,4.30
2011,11,15,15,32,4.30
2011,11,15,15,33,4.20
2011,11,15,15,34,4.20
2011,11,15,15,35,4.20
2011,11,15,15,36,4.20
2011,11,15,15,37,4.20
2011,11,15,15,38,4.20
2011,11,15,15,39,4.20
2011,11,15,15,40,4.10
2011,11,15,15,41,4.10
2011,11,15,15,42,4.10
2011,11,15,15,43,4.10
2011,11,15,15,44,4.10
2011,11,15,15,45,4.10
2011,11,15,15,46,4.00
2011,11,15,15,47,4.00
2011,11,15,15,48,4.00
2011,11,15,15,49,3.90
2011,11,15,15,50,3.90
2011,11,15,15,51,3.90
2011,11,15,15,52,3.90
2011,11,15,15,53,3.90
2011,11,15,15,54,3.90
2011,11,15,15,55,3.80
2011,11,15,15,56,3.80
2011,11,15,15,57,3.80
2011,11,15,15,58,3.80
2011,11,15,15,59,3.80
2011,11,15,16,00,3.80
2011,11,15,16,01,3.70
2011,11,15,16,02,3.70
2011,11,15,16,03,3.70
2011,11,15,16,04,3.70
2011,11,15,16,05,3.70
2011,11,15,16,06,3.70
2011,11,15,16,07,3.60
2011,11,15,16,08,3.60
2011,11,15,16,09,3.60
2011,11,15,16,10,3.60
2011,11,15,16,11,3.60
2011,11,15,16,12,3.50
2011,11,15,16,13,3.50
2011,11,15,16,14,3.50
2011,11,15,16,15,3.40
2011,11,15,16,16,3.40
2011,11,15,16,17,3.40
2011,11,15,16,18,3.40
2011,11,15,16,19,3.30
2011,11,15,16,20,3.30
2011,11,15,16,21,3.30
2011,11,15,16,22,3.30
2011,11,15,16,23,3.20
2011,11,15,16,24,3.20
2011,11,15,16,25,3.20
2011,11,15,16,26,3.20
2011,11,15,16,27,3.10
2011,11,15,16,28,3.10
2011,11,15,16,29,3.10
2011,11,15,16,30,3.10
2011,11,15,16,31,3.00
2011,11,15,16,32,3.00
2011,11,15,16,33,3.00
2011,11,15,16,34,2.90
2011,11,15,16,35,2.90
2011,11,15,16,36,2.90
2011,11,15,16,37,2.80
2011,11,15,16,38,2.80
2011,11,15,16,39,2.80
2011,11,15,16,40,2.80
2011,11,15,16,41,2.70
2011,11,15,16,42,2.70
2011,11,15,16,43,2.70
2011,11,15,16,44,2.60
2011,11,15,16,45,2.60
2011,11,15,16,46,2.60
2011,11,15,16,47,2.50
2011,11,15,16,48,2.50
2011,11,15,16,49,2.40
2011,11,15,16,50,2.40
2011,11,15,16,51,2.40
2011,11,15,16,52,2.30
2011,11,15,16,53,2.30
2011,11,15,16,54,2.20
2011,11,15,16,55,2.20
2011,11,15,16,56,2.20
2011,11,15,16,57,2.10
2011,11,15,16,58,2.10
2011,11,15,16,59,2.10
2011,11,15,17,00,2.00
2011,11,15,17,01,2.00
2011,11,15,17,02,1.90
2011,11,15,17,03,1.90
2011,11,15,17,04,1.90
2011,11,15,17,05,1.90
2011,11,15,17,06,1.90
2011,11,15,17,07,1.80
2011,11,15,17,08,1.80
2011,11,15,17,09,1.80
2011,11,15,17,10,1.80
2011,11,15,17,11,1.80
2011,11,15,17,12,1.70
2011,11,15,17,13,1.70
2011,11,15,17,14,1.70
2011,11,15,17,15,1.70
2011,11,15,17,16,1.70
2011,11,15,17,17,1.70
2011,11,15,17,18,1.60
2011,11,15,17,19,1.60
2011,11,15,17,20,1.60
2011,11,15,17,21,1.60
2011,11,15,17,22,1.60
2011,11,15,17,23,1.60
2011,11,15,17,24,1.60
2011,11,15,17,25,1.60
2011,11,15,17,26,1.60
2011,11,15,17,27,1.60
2011,11,15,17,28,1.60
2011,11,15,17,29,1.50
2011,11,15,17,30,1.50
2011,11,15,17,31,1.50
2011,11,15,17,32,1.50
2011,11,15,17,33,1.50
2011,11,15,17,34,1.50
2011,11,15,17,35,1.40
2011,11,15,17,36,1.40
2011,11,15,17,37,1.40
2011,11,15,17,38,1.40
2011,11,15,17,39,1.30
2011,11,15,17,40,1.30
2011,11,15,17,41,1.30
2011,11,15,17,42,1.30
2011,11,15,17,43,1.30
2011,11,15,17,44,1.30
2011,11,15,17,45,1.30
2011,11,15,17,46,1.30
2011,11,15,17,47,1.30
2011,11,15,17,48,1.30
2011,11,15,17,49,1.30
2011,11,15,17,50,1.30
2011,11,15,17,51,1.30
2011,11,15,17,52,1.30
2011,11,15,17,53,1.30
2011,11,15,17,54,1.20
2011,11,15,17,55,1.20
2011,11,15,17,56,1.20
2011,11,15,17,57,1.20
2011,11,15,17,58,1.20
2011,11,15,17,59,1.30
2011,11,15,18,00,1.30
2011,11,15,18,01,1.30
2011,11,15,18,02,1.30
2011,11,15,18,03,1.30
2011,11,15,18,04,1.30
2011,11,15,18,05,1.30
2011,11,15,18,06,1.30
2011,11,15,18,07,1.30
2011,11,15,18,08,1.30
2011,11,15,18,09,1.30
2011,11,15,18,10,1.30
2011,11,15,18,11,1.40
2011,11,15,18,12,1.30
2011,11,15,18,13,1.30
2011,11,15,18,14,1.30
2011,11,15,18,15,1.30
2011,11,15,18,16,1.30
2011,11,15,18,17,1.40
2011,11,15,18,18,1.40
2011,11,15,18,19,1.50
2011,11,15,18,20,1.50
2011,11,15,18,21,1.60
2011,11,15,18,22,1.60
2011,11,15,18,23,1.60
2011,11,15,18,24,1.60
2011,11,15,18,25,1.60
2011,11,15,18,26,1.60
2011,11,15,18,27,1.60
2011,11,15,18,28,1.60
2011,11,15,18,29,1.60
2011,11,15,18,30,1.60
2011,11,15,18,31,1.60
2011,11,15,18,32,1.60
2011,11,15,18,33,1.60
2011,11,15,18,34,1.60
2011,11,15,18,35,1.60
2011,11,15,18,36,1.60
2011,11,15,18,37,1.70
2011,11,15,18,38,1.70
2011,11,15,18,39,1.70
2011,11,15,18,40,1.70
2011,11,15,18,41,1.80
2011,11,15,18,42,1.80
2011,11,15,18,43,1.80
2011,11,15,18,44,1.80
2011,11,15,18,45,1.90
2011,11,15,18,46,1.90
2011,11,15,18,47,2.00
2011,11,15,18,48,2.00
2011,11,15,18,49,2.10
2011,11,15,18,50,2.10
2011,11,15,18,51,2.10
2011,11,15,18,52,2.20
2011,11,15,18,53,2.20
2011,11,15,18,54,2.20
2011,11,15,18,55,2.20
2011,11,15,18,56,2.20
2011,11,15,18,57,2.20
2011,11,15,18,58,2.20
2011,11,15,18,59,2.10
2011,11,15,19,00,2.10
2011,11,15,19,01,2.10
2011,11,15,19,02,2.00
2011,11,15,19,03,2.00
2011,11,15,19,04,2.00
2011,11,15,19,05,1.90
2011,11,15,19,06,1.90
2011,11,15,19,07,2.00
2011,11,15,19,08,2.00
2011,11,15,19,09,1.90
2011,11,15,19,10,1.90
2011,11,15,19,11,1.90
2011,11,15,19,12,1.90
2011,11,15,19,13,1.90
2011,11,15,19,14,1.90
2011,11,15,19,15,1.80
2011,11,15,19,16,1.80
2011,11,15,19,17,1.80
2011,11,15,19,18,1.70
2011,11,15,19,19,1.70
2011,11,15,19,20,1.70
2011,11,15,19,21,1.70
2011,11,15,19,22,1.60
2011,11,15,19,23,1.60
2011,11,15,19,24,1.60
2011,11,15,19,25,1.60
2011,11,15,19,26,1.50
2011,11,15,19,27,1.50
2011,11,15,19,28,1.50
2011,11,15,19,29,1.50
2011,11,15,19,30,1.50
2011,11,15,19,31,1.40
2011,11,15,19,32,1.40
2011,11,15,19,33,1.40
2011,11,15,19,34,1.40
2011,11,15,19,35,1.40
2011,11,15,19,36,1.50
2011,11,15,19,37,1.50
2011,11,15,19,38,1.50
2011,11,15,19,39,1.50
2011,11,15,19,40,1.50
2011,11,15,19,41,1.50
2011,11,15,19,42,1.60
2011,11,15,19,43,1.60
2011,11,15,19,44,1.60
2011,11,15,19,45,1.70
2011,11,15,19,46,1.70
2011,11,15,19,47,1.70
2011,11,15,19,48,1.70
2011,11,15,19,49,1.70
2011,11,15,19,50,1.80
2011,11,15,19,51,1.80
2011,11,15,19,52,1.80
2011,11,15,19,53,1.80
2011,11,15,19,54,1.80
2011,11,15,19,55,1.80
2011,11,15,19,56,1.80
2011,11,15,19,57,1.80
2011,11,15,19,58,1.80
2011,11,15,19,59,1.70
2011,11,15,20,00,1.70
2011,11,15,20,01,1.70
2011,11,15,20,02,1.70
2011,11,15,20,03,1.70
2011,11,15,20,04,1.70
2011,11,15,20,05,1.60
2011,11,15,20,06,1.60
2011,11,15,20,07,1.60
2011,11,15,20,08,1.60
2011,11,15,20,09,1.70
2011,11,15,20,10,1.70
2011,11,15,20,11,1.70
2011,11,15,20,12,1.70
2011,11,15,20,13,1.70
2011,11,15,20,14,1.70
2011,11,15,20,15,1.70
2011,11,15,20,16,1.80
2011,11,15,20,17,1.80
2011,11,15,20,18,1.80
2011,11,15,20,19,1.90
2011,11,15,20,20,1.90
2011,11,15,20,21,1.90
2011,11,15,20,22,1.90
2011,11,15,20,23,1.90
2011,11,15,20,24,1.90
2011,11,15,20,25,1.90
2011,11,15,20,26,1.90
2011,11,15,20,27,1.90
2011,11,15,20,28,1.90
2011,11,15,20,29,2.00
2011,11,15,20,30,2.00
2011,11,15,20,31,2.00
2011,11,15,20,32,2.00
2011,11,15,20,33,2.00
2011,11,15,20,34,2.10
2011,11,15,20,35,2.10
2011,11,15,20,36,2.10
2011,11,15,20,37,2.10
2011,11,15,20,38,2.10
2011,11,15,20,39,2.10
2011,11,15,20,40,2.10
2011,11,15,20,41,2.10
2011,11,15,20,42,2.10
2011,11,15,20,43,2.10
2011,11,15,20,44,2.00
2011,11,15,20,45,2.00
2011,11,15,20,46,2.00
2011,11,15,20,47,2.00
2011,11,15,20,48,2.00
2011,11,15,20,49,2.00
2011,11,15,20,50,2.00
2011,11,15,20,51,2.00
2011,11,15,20,52,2.00
2011,11,15,20,53,2.00
2011,11,15,20,54,2.00
2011,11,15,20,55,2.10
2011,11,15,20,56,2.10
2011,11,15,20,57,2.10
2011,11,15,20,58,2.10
2011,11,15,20,59,2.10
2011,11,15,21,00,2.10
2011,11,15,21,01,2.10
2011,11,15,21,02,2.10
2011,11,15,21,03,2.10
2011,11,15,21,04,2.10
2011,11,15,21,05,2.10
2011,11,15,21,06,2.10
2011,11,15,21,07,2.10
2011,11,15,21,08,2.10
2011,11,15,21,09,2.10
2011,11,15,21,10,2.10
2011,11,15,21,11,2.10
2011,11,15,21,12,2.10
2011,11,15,21,13,2.10
2011,11,15,21,14,2.10
2011,11,15,21,15,2.10
2011,11,15,21,16,2.10
2011,11,15,21,17,2.10
2011,11,15,21,18,2.00
2011,11,15,21,19,2.00
2011,11,15,21,20,2.00
2011,11,15,21,21,2.00
2011,11,15,21,22,2.00
2011,11,15,21,23,1.90
2011,11,15,21,24,1.90
2011,11,15,21,25,1.90
2011,11,15,21,26,1.90
2011,11,15,21,27,1.90
2011,11,15,21,28,1.80
2011,11,15,21,29,1.80
2011,11,15,21,30,1.80
2011,11,15,21,31,1.80
2011,11,15,21,32,1.80
2011,11,15,21,33,1.80
2011,11,15,21,34,1.80
2011,11,15,21,35,1.80
2011,11,15,21,36,1.80
2011,11,15,21,37,1.90
2011,11,15,21,38,1.90
2011,11,15,21,39,1.90
2011,11,15,21,40,1.90
2011,11,15,21,41,1.90
2011,11,15,21,42,2.00
2011,11,15,21,43,2.00
2011,11,15,21,44,2.00
2011,11,15,21,45,2.00
2011,11,15,21,46,2.10
2011,11,15,21,47,2.10
2011,11,15,21,48,2.10
2011,11,15,21,49,2.10
2011,11,15,21,50,2.10
2011,11,15,21,51,2.10
2011,11,15,21,52,2.10
2011,11,15,21,53,2.10
2011,11,15,21,54,2.10
2011,11,15,21,55,2.10
2011,11,15,21,56,2.10
2011,11,15,21,57,2.10
2011,11,15,21,58,2.20
2011,11,15,21,59,2.20
2011,11,15,22,00,2.20
2011,11,15,22,01,2.20
2011,11,15,22,02,2.20
2011,11,15,22,03,2.20
2011,11,15,22,04,2.20
2011,11,15,22,05,2.10
2011,11,15,22,06,2.10
2011,11,15,22,07,2.10
2011,11,15,22,08,2.10
2011,11,15,22,09,2.10
2011,11,15,22,10,2.10
2011,11,15,22,11,2.10
2011,11,15,22,12,2.10
2011,11,15,22,13,2.10
2011,11,15,22,14,2.10
2011,11,15,22,15,2.10
2011,11,15,22,16,2.00
2011,11,15,22,17,2.00
2011,11,15,22,18,2.10
2011,11,15,22,19,2.10
2011,11,15,22,20,2.10
2011,11,15,22,21,2.10
2011,11,15,22,22,2.10
2011,11,15,22,23,2.10
2011,11,15,22,24,2.10
2011,11,15,22,25,2.00
2011,11,15,22,26,2.00
2011,11,15,22,27,2.00
2011,11,15,22,28,2.00
2011,11,15,22,29,2.00
2011,11,15,22,30,2.00
2011,11,15,22,31,2.00
2011,11,15,22,32,2.00
2011,11,15,22,33,2.00
2011,11,15,22,34,2.00
2011,11,15,22,35,2.00
2011,11,15,22,36,2.00
2011,11,15,22,37,2.00
2011,11,15,22,38,2.00
2011,11,15,22,39,1.90
2011,11,15,22,40,1.90
2011,11,15,22,41,1.90
2011,11,15,22,42,1.90
2011,11,15,22,43,1.90
2011,11,15,22,44,1.90
2011,11,15,22,45,1.90
2011,11,15,22,46,1.90
2011,11,15,22,47,1.90
2011,11,15,22,48,1.90
2011,11,15,22,49,1.90
2011,11,15,22,50,1.90
2011,11,15,22,51,1.90
2011,11,15,22,52,1.90
2011,11,15,22,53,1.90
2011,11,15,22,54,1.90
2011,11,15,22,55,1.90
2011,11,15,22,56,1.90
2011,11,15,22,57,1.90
2011,11,15,22,58,1.90
2011,11,15,22,59,1.90
2011,11,15,23,00,1.90
2011,11,15,23,01,1.90
2011,11,15,23,02,1.90
2011,11,15,23,03,1.90
2011,11,15,23,04,1.90
2011,11,15,23,05,1.90
2011,11,15,23,06,1.90
2011,11,15,23,07,2.00
2011,11,15,23,08,2.00
2011,11,15,23,09,2.00
2011,11,15,23,10,2.00
2011,11,15,23,11,2.00
2011,11,15,23,12,2.00
2011,11,15,23,13,2.00
2011,11,15,23,14,2.00
2011,11,15,23,15,2.00
2011,11,15,23,16,2.00
2011,11,15,23,17,2.00
2011,11,15,23,18,2.00
2011,11,15,23,19,2.00
2011,11,15,23,20,2.00
2011,11,15,23,21,2.00
2011,11,15,23,22,2.00
2011,11,15,23,23,2.00
2011,11,15,23,24,2.00
2011,11,15,23,25,2.00
2011,11,15,23,26,2.00
2011,11,15,23,27,2.00
2011,11,15,23,28,2.00
2011,11,15,23,29,2.00
2011,11,15,23,30,2.00
2011,11,15,23,31,2.00
2011,11,15,23,32,2.00
2011,11,15,23,33,2.00
2011,11,15,23,34,2.00
2011,11,15,23,35,2.00
2011,11,15,23,36,2.00
2011,11,15,23,37,2.00
2011,11,15,23,38,2.00
2011,11,15,23,39,2.00
2011,11,15,23,40,2.00
2011,11,15,23,41,2.10
2011,11,15,23,42,2.10
2011,11,15,23,43,2.10
2011,11,15,23,44,2.10
2011,11,15,23,45,2.10
2011,11,15,23,46,2.10
2011,11,15,23,47,2.10
2011,11,15,23,48,2.10
2011,11,15,23,49,2.10
2011,11,15,23,50,2.20
2011,11,15,23,51,2.20
2011,11,15,23,52,2.20
2011,11,15,23,53,2.10
2011,11,15,23,54,2.10
2011,11,15,23,55,2.10
2011,11,15,23,56,2.10
2011,11,15,23,57,2.10
2011,11,15,23,58,2.10
2011,11,15,23,59,2.10
